Flag for United Kingdom Weather past 2 weeks in Worcester, England, United Kingdom

Now
44 °F

Quite cool.


Feels Like: 37 °F
Forecast: 40 / 49 °F
Wind: 14 mph from West

Location: Pershore

Current Time: Mar 1, 2015 at 7:32:31 AM

Latest Report: Mar 1, 2015 at 6:00 AM


Visibility: 17 mi

Pressure: 29.50 "Hg

Humidity: 68%

Dew point: 34 °F

Location of WorcesterLocation

Historic Weather in Worcester — Graph

°F

Worcester temperature yesterday

Maximum temperature yesterday: 52 °F (at 11:00 PM)
Minimum temperature yesterday: 41 °F (at 12:00 AM)
Average temperature yesterday: 48 °F

Past Weeks' High & Low Weather Summary

 TemperatureHumidityPressure
High53 °F (Feb 25, 3:00 PM)100% (Feb 14, 7:00 AM)30.74 "Hg (Feb 14, 7:00 AM)
Low28 °F (Feb 17, 5:00 AM)51% (Feb 27, 3:00 PM)29.18 "Hg (Feb 22, 9:00 PM)
Average42 °F84%29.88 "Hg
* Reported Feb 14 6:00 AM — Mar 1 6:00 AM, Worcester, Weather by CustomWeather, © 2015

Note: Actual official high and low records may vary slightly from our data, if they occured in-between our weather recording intervals... More about our weather records

Advertising

Worcester weather history for previous 24 hours

 ConditionsComfort  
Time TempWeatherWind HumidityBarometerVisibility
6:00 AM
Sun, Mar 1
44 °FQuite cool.14 mph68%29.50 "Hg17 mi
5:00 AM45 °FQuite cool.14 mph66%29.47 "Hg16 mi
4:00 AM45 °FCool.14 mph67%29.44 "Hg19 mi
3:00 AM46 °FCool.16 mph67%29.44 "Hg18 mi
2:00 AM47 °FCool.20 mph69%29.44 "Hg19 mi
1:00 AM49 °FCool.18 mph65%29.41 "Hg9 mi
12:00 AM52 °FCool.15 mph71%29.35 "Hg7 mi
11:00 PM
Sat, Feb 28
52 °FCool.17 mph77%29.35 "Hg12 mi
10:00 PM51 °FCool.15 mph90%29.35 "Hg28 mi
9:00 PM51 °FCool.21 mph89%29.38 "Hg25 mi
8:00 PM50 °FCool.24 mph88%29.38 "Hg10 mi
7:00 PM50 °FCool.24 mph76%29.41 "Hg9 mi
6:00 PM49 °FCool.13 mph78%29.47 "Hg9 mi
5:00 PM49 °FRain showers. Cloudy.13 mph83%29.54 "Hg7 mi
4:00 PM51 °FCool.15 mph76%29.59 "Hg8 mi
3:00 PM52 °FCool.17 mph70%29.62 "Hg11 mi
2:00 PM51 °FCool.20 mph75%29.65 "Hg11 mi
1:00 PM51 °FCool.17 mph76%29.68 "Hg11 mi
12:00 PM51 °FCool.15 mph82%29.71 "Hg11 mi
11:00 AM50 °FCool.10 mph88%29.74 "Hg13 mi
10:00 AM49 °FCool.12 mph91%29.76 "Hg13 mi
9:00 AM47 °FCool.10 mph98%29.79 "Hg4 mi
8:00 AM46 °FLight freezing rain. Cloudy.10 mph97%29.80 "Hg2 mi
7:00 AM47 °FCool.17 mph90%29.78 "Hg10 mi
Weather by CustomWeather, © 2015

See weather overviewHow to use our weather pages